Regional Weather Roundup
Issued by NWS

Home | Current Version | Previous Version | Text Only | Print | Product List | Glossary On
Versions: 1 2 3 4 5 6 7 8 9 10 11 12 13 14 15 16 17 18 19 20 21 22 23 24 25 26 27 28 29 30 31 32 33 34 35 36 37 38 39 40 41 42 43 44 45 46 47 48 49 50
000
ASUS43 KIND 191709
RWRIN

WEATHER ROUNDUP FOR INDIANA
NATIONAL WEATHER SERVICE INDIANAPOLIS IN
100 PM EDT SUN MAY 19 2019

NOTE: "FAIR" INDICATES FEW OR NO CLOUDS BELOW 12,000 FEET WITH NO
SIGNIFICANT WEATHER AND/OR OBSTRUCTIONS TO VISIBILITY.

* - STATION DOES NOT REPORT WEATHER SUCH AS PRECIPITATION OR FOG.

+ - STATION NOT QUALITY CONTROLLED BY THE NATIONAL WEATHER SERVICE.
    USE DATA WITH CAUTION...ESPECIALLY DEWPOINT AND RELATIVE
    HUMIDITY OBSERVATIONS.

INZ001>003-010>013-019-020-191800-
NORTHWEST INDIANA

CITY           SKY/WX    TMP DP  RH WIND       PRES   REMARKS
GARY /AIRPORT/ CLOUDY    70  64  83 SW8       29.65S
KNOX *+        PTSUNNY   70  63  78 E17       29.68F
LA PORTE +     CLOUDY    67  63  86 SW12G21   29.69F
MICHIGAN CITY+ CLOUDY    68  61  77 S13G23    29.67F
MONTICELLO +   CLOUDY    69  63  81 S18       29.70F
RENSSELAER +   CLOUDY    68  63  83 SW20G29   29.69R
VALPARAISO     CLOUDY    69  62  78 S14G28    29.67F

$$

LMZ046-743>745-191800-
SOUTHERN LAKE MICHIGAN

STATION/POSITION TIME  TEMP    WIND        PRES    WAVE
                       AIR SEA DIR/SP/G            HT
                 (UTC) (F)     (DEG/KT/KT) (MB)    (FT)
BURNS HARBOR     1640   68     200/ 10/ 14 1004.4F
MICHIGAN CITY    1640   69     180/ 21/ 26   N/A

$$

INZ004-005-014>016-021>024-191800-
NORTH CENTRAL INDIANA

CITY           SKY/WX    TMP DP  RH WIND       PRES   REMARKS
ELKHART        LGT RAIN  68  64  88 S14       29.71S
GOSHEN         LGT RAIN  67  62  84 S13       29.71F
PERU/GRISSOM   LGT RAIN  67  67 100 S15       29.73F
PLYMOUTH *+    PTSUNNY   68  68 100 S9G16     29.70F
ROCHESTER +    DRIZZLE   70  63  78 SW12G18   29.73S
SOUTH BEND     LGT RAIN  68  62  81 S16G31    29.67F
WARSAW +       LGT RAIN  66  63  88 S7        29.72F

$$

INZ006>009-017-018-025>027-191800-
NORTHEAST INDIANA

CITY           SKY/WX    TMP DP  RH WIND       PRES   REMARKS
ANGOLA *+      RAIN      66  63  88 SW18G26   29.75R
AUBURN +       LGT RAIN  68  64  88 SW9G23    29.76F
FORT WAYNE     LGT RAIN  69  62  78 SW22G37   29.76S
HUNTINGTON +   CLOUDY    68  63  84 SW10      29.75F

$$

INZ028-029-035-036-043>045-051>053-191800-
WEST CENTRAL INDIANA

CITY           SKY/WX    TMP DP  RH WIND       PRES   REMARKS
CRAWFORDSVL +  LGT RAIN  65  65 100 S12       29.75F
GREENCASTLE +  LGT RAIN  63  61  94 S13G18    29.79F
LAFAYETTE      LGT RAIN  67  63  87 SW13G26   29.71F
TERRE HAUTE    LGT RAIN  67  63  87 SW10      29.76R

$$

INZ030>032-037>040-046>048-054>057-064-065-191800-
CENTRAL INDIANA

CITY           SKY/WX    TMP DP  RH WIND       PRES   REMARKS
COLUMBUS       CLOUDY    68  64  88 S10       29.81S
FISHERS *+     CLOUDY    64  64 100 SW10G18   29.79F
FRANKFORT +    CLOUDY    70  64  81 MISG      29.77R
GREENWOOD *+   CLOUDY    65  64  94 SW6       29.80S VSB 1/2
INDIANAPOLIS   RAIN      66  63  90 SW14G29   29.80R FOG
-EAGLE CREEK   LGT RAIN  66  63  90 SW12G26   29.79R FOG
KOKOMO +       LGT RAIN  67  64  90 SW15G22   29.77F
MARION +       CLOUDY    69  64  83 SW15G22   29.77F
MT COMFORT *+  CLOUDY    66  66 100 SW13G20   29.79F
SHELBYVILLE    LGT RAIN  70  66  87 S16       29.79S
ZIONSVILLE +   RAIN      65  65  99 SW14G22   29.79S

$$

INZ033-034-041-042-049-050-058-059-191800-
EAST CENTRAL INDIANA

CITY           SKY/WX    TMP DP  RH WIND       PRES   REMARKS
MUNCIE         CLOUDY    71  63  75 SW9       29.77F
PORTLAND +     CLOUDY    73  57  56 SW14G20   29.78F
RICHMOND +     CLOUDY    72  68  88 S20G30    29.83F

$$

INZ060-061-067>069-081>083-085>088-191800-
SOUTHWEST INDIANA

CITY           SKY/WX    TMP DP  RH WIND       PRES   REMARKS
EVANSVILLE     PTSUNNY   68  67  96 SW8       29.81F
HUNTINGBURG +  LGT RAIN  68  67  96 S13       29.82R FOG
WASHINGTON +   LGT RAIN  65  65 100 SW7       29.81F

$$

INZ062-063-066-070>080-084-089>092-191800-
SOUTH CENTRAL AND SOUTHEAST INDIANA

CITY           SKY/WX    TMP DP  RH WIND       PRES   REMARKS
BLOOMINGTON    RAIN      66  65  96 SW9       29.81R FOG
FRENCH LICK *+ CLOUDY    64  63  94 S9G18     29.82S
JEFFERSONVL +  CLOUDY    72  64  75 S6        29.83F
MADISON *+     PTSUNNY   70  63  78 S9        29.86F
NORTH VERNON + PTSUNNY   70  59  68 S15G31    29.83F

$$




USA.gov is the U.S. government's official web portal to all federal, state and local government web resources and services.